Regional Weather Roundup
Issued by NWS Midland/Odessa, TX

Skip options and go directly to product.
Home | Oldest Version | Next Version | Current Version | All | Text Only | Save Text | Print | Product List | Glossary On

Skip product version selection by date and time.   
368
ASUS44 KMAF 111801
RWRMAF
MIDLAND AREA WEATHER ROUNDUP
NATIONAL WEATHER SERVICE MIDLAND TX
1200 PM CST THU FEB 11 2016

...IN SOUTHWEST TEXAS AND SOUTHEAST NEW MEXICO...

CITY           SKY/WX    TMP DP  RH WIND       PRES   REMARKS
ALPINE         SUNNY     70  13  11 W8        30.31F
ANDREWS        FAIR      57  22  25 N7        30.19R
ARTESIA        SUNNY     63  21  20 N16       30.25S
BIG SPRING     SUNNY     55  23  29 CALM      30.19S
CARLSBAD       SUNNY     62  21  20 N18       30.23F
DRYDEN           N/A     77  18  11 SW20      30.15F
FORT STOCKTON  SUNNY     71  21  15 NW16      30.20S
GUAD PASS      SUNNY     59  16  18 SW9       30.31R
HOBBS          SUNNY     59  21  23 N15       30.22R
MARFA          SUNNY     68  15  13 W9G18     30.28F
MIDLAND AIRPK  SUNNY     61  22  22 W3        30.18F
MIDLAND INTL   SUNNY     64  24  21 VRB3      30.17F
ODESSA         SUNNY     65  21  18 W10       30.17F
PECOS          SUNNY     66  23  19 NW15      30.20F
PRESIDIO       FAIR      64  19  18 MISG      30.25F
SEMINOLE       SUNNY     57  24  27 N9        30.20S
SNYDER           N/A     60  27  28 NE9       30.17S
WINK           SUNNY     68  24  19 NW6       30.18F
$$
...OTHER STATIONS IN TEXAS...

CITY           SKY/WX    TMP DP  RH WIND       PRES   REMARKS
ABILENE        SUNNY     67  30  25 W8        30.14F
AMARILLO       SUNNY     57  26  30 VRB3      30.25S
AUSTIN         SUNNY     76  39  26 S16       30.15F
BROWNSVILLE    SUNNY     75  53  46 S23G30    30.22F
CORPUS CHRISTI SUNNY     78  45  30 S20G28    30.19F
DALLAS FTW     PTSUNNY   71  28  20 NW6       30.11S
DEL RIO        SUNNY     68  31  25 VRB3      30.16F
EL PASO        SUNNY     59  19  21 CALM      30.28S
HOUSTON INT    SUNNY     73  41  31 W10G18    30.19F
LUBBOCK        MOSUNNY   60  26  27 NE14      30.20S
SAN ANGELO     SUNNY     76  26  15 SW9       30.12F
SAN ANTONIO    SUNNY     71  39  31 SW14      30.18F
WACO           SUNNY     76  35  22 SW8       30.11F
WICHITA FALLS  NOT AVBL
$$
...OTHER LOCATIONS IN NEW MEXICO...

CITY           SKY/WX    TMP DP  RH WIND       PRES   REMARKS
ALAMAGORDO     SUNNY     59  21  23 SE6       30.28F
ALBUQUERQUE    SUNNY     54  19  25 VRB3      30.37F
CANNON AFB     NOT AVBL
CLOVIS         SUNNY     59  23  25 NE12      30.27S
HOLLOMAN AFB   NOT AVBL
ROSWELL        SUNNY     64  17  16 NE13      30.24F
RUIDOSO          N/A     59   3  10 NW9       30.36S
SANTA FE       SUNNY     49  19  30 N14       30.35S
TRUTH OR CONSE SUNNY     59  16  18 E5        30.32S
TUCUMCARI      SUNNY     58  20  22 CALM      30.25F
$$

USA.gov is the U.S. government's official web portal to all federal, state and local government web resources and services.